Regional Weather Roundup
Issued by NWS

Home | Current Version | Previous Version | Graphics & Text | Print | Product List | Glossary On
Versions: 1 2 3 4 5 6 7 8 9 10 11 12 13 14 15 16 17 18 19 20 21 22 23 24 25 26 27 28 29 30 31 32 33 34 35 36 37 38 39 40 41 42 43 44 45 46 47 48 49 50
000
ASUS43 KTOP 311408
RWRKS

WEATHER ROUNDUP FOR KANSAS
NATIONAL WEATHER SERVICE GOODLAND KS
900 AM CDT MON AUG 31 2015

NOTE:  "FAIR" INDICATES FEW OR NO CLOUDS BELOW 12,000 FEET WITH NO
SIGNIFICANT WEATHER AND/OR OBSTRUCTIONS TO VISIBILITY.

KSZ001>006-013>018-027>032-041>047-311500-
NORTHWEST KANSAS

CITY           SKY/WX    TMP DP  RH WIND       PRES   REMARKS
GOODLAND       SUNNY     65  54  67 NW10      29.98R
HAYS           MOSUNNY   66  59  77 S12       29.94S
HILL CITY      SUNNY     69  64  84 SE6       29.94R
RUSSELL        SUNNY     70  67  90 S15       29.93S
$$

KSZ061>065-074>080-084>089-311500-
SOUTHWEST KANSAS

CITY           SKY/WX    TMP DP  RH WIND       PRES   REMARKS
DODGE CITY     SUNNY     66  60  81 S10       29.96S
ELKHART          N/A     66  50  56 S8          N/A
GARDEN CITY    SUNNY     66  56  70 S9        29.96R
GREAT BEND     PTSUNNY   68  64  88 S10       29.96R
LIBERAL        SUNNY     66  55  68 S12       29.99R
PRATT          CLOUDY    66  64  94 CALM      29.98S FOG
$$

KSZ066>073-081>083-090>101-311500-
SOUTHEAST KANSAS

CITY           SKY/WX    TMP DP  RH WIND       PRES   REMARKS
CHANUTE        SUNNY     72  69  90 SE8       30.00S
COFFEYVILLE    SUNNY     72  69  90 S6        30.00R
HUTCHINSON     SUNNY     70  68  93 SE6       29.97S FOG
MEDICINE LODGE   N/A     69  68  96 SE6       29.96R
NEWTON         SUNNY     70  64  83 SE9       30.00S
PARSONS        SUNNY     73  70  90 S5        30.01R
WICHITA INTL   MOSUNNY   73  68  84 S10       29.97R
WICHITA JABRA  SUNNY     71  68  90 SE8       29.97S
WICHITA MCCONL SUNNY     72  59  64 SE8       29.97S
WINFIELD       SUNNY     72  68  87 S8        29.99R
$$

KSZ007>012-019>026-033>040-048>060-102>105-311500-
NORTHEAST KANSAS

CITY           SKY/WX    TMP DP  RH WIND       PRES   REMARKS
CONCORDIA      MOSUNNY   70  68  93 S12       29.96S FOG
EMPORIA        FOG       69  69 100 S9        29.99R VSB 1/4
LAWRENCE       MOSUNNY   73  70  90 SE5       29.99R FOG
MANHATTAN      SUNNY     72  69  90 CALM      29.97R
MARYSVILLE     SUNNY    N/A N/A N/A SE5       29.97S
OLATHE IND     SUNNY     73  71  93 S7        30.01R FOG
OLATHE EXE     SUNNY     72  71  97 S8        30.00R FOG
SALINA         SUNNY     71  68  90 SE7       29.96F FOG
TOPEKA BILLARD MOSUNNY   72  69  90 CALM      29.99R FOG
TOPEKA FORBES  MOSUNNY   73  70  90 S6        29.99R FOG
$$


USA.gov is the U.S. government's official web portal to all federal, state and local government web resources and services.